Location: Al Mulaqqa?ah
(24.1833°N, 32.8833°E)
Time: 21:42:00
(UTC+00:00)

Cosmos 1461 - Pass Details

Date: 26 September 2021
Orbit: 520 x 642 km, 65.0° (Epoch: 23 October)

Event Time Altitude Azimuth Distance (km) Brightness Sun altitude
Rises 16:32:26 0° 340° (NNW) 2,655 6.6 -12.6°
Reaches altitude 10° 16:34:39 10° 345° (NNW) 1,756 5.6 -13.2°
Maximum altitude 16:38:30 56° 64° (ENE) 621 2.7 -14.0°
Enters shadow 16:41:22 17° 139° (SE) 1,373 4.4 -14.7°
